[[[{"header":{"parameterUnit":"kt","parameterCategory":2,"dx":1,"dy":1,"la1":30.253999710083008,"la2":30.299108505249023,"lo1":-89.0895004272461,"lo2":-89.04439544677734,"nx":28,"ny":28,"refTime":"2022-10-04T21:00:00:Z","depth":0,"parameterNumber":1,"parameterNumberName":"U-component_of_WINDS"},"data":[-2.6943,-2.7082,-2.7111,-2.7283,-2.7338,-2.7461,-2.7514,-2.7587,-2.7651,-2.7802,-2.7894,-2.7938,-2.8015,-2.8132,-2.8234,-2.8252,-2.8293,-2.8321,-2.8337,-2.8184,-2.8165,-2.8147,-2.8116,-2.833,-2.833,-2.8492,-2.8494,-2.8495,-2.683,-2.6885,-2.6984,-2.71,-2.7186,-2.7176,-2.7268,-2.734,-2.745,-2.7531,-2.7623,-2.7759,-2.7869,-2.7938,-2.805,-2.8117,-2.8119,-2.8145,-2.8141,-2.8154,-2.7991,-2.7958,-2.8141,-2.8141,-2.8141,-2.8141,-2.8141,-2.8141,-2.663,-2.6712,-2.6798,-2.6907,-2.6973,-2.705,-2.7134,-2.7185,-2.7283,-2.7402,-2.7418,-2.7544,-2.7631,-2.778,-2.7837,-2.7937,-2.7914,-2.7951,-2.7961,-2.7971,-2.7977,-2.7741,-2.7957,-2.7956,-2.7956,-2.7956,-2.7955,0,-2.6493,-2.6512,-2.6609,-2.6714,-2.6795,-2.688,-2.6962,-2.7015,-2.7064,-2.7143,-2.726,-2.7333,-2.7476,-2.759,-2.7701,-2.7753,-2.7753,-2.7755,-2.7782,-2.7777,-2.7758,-2.7772,-2.7506,-2.7749,-2.7748,-2.7746,-2.7745,-2.7745,-2.6296,-2.6387,-2.6492,-2.6556,-2.6608,-2.6711,-2.6779,-2.6815,-2.6886,-2.6993,-2.7064,-2.7178,-2.7272,-2.7455,-2.7515,-2.7622,-2.7623,-2.7713,-2.764,-2.7631,-2.7627,-2.7622,-2.7632,-2.7727,-2.7729,-2.7731,-2.7733,0,-2.6182,-2.6228,-2.6379,-2.6474,-2.65,-2.6595,-2.6676,-2.676,-2.68,-2.6921,-2.6952,-2.7017,-2.7131,-2.7177,-2.7317,-2.7337,-2.7496,-2.7494,-2.7467,-2.7469,-2.7556,-2.7548,-2.7825,-2.7864,-2.7641,-2.7643,-2.7645,0,-2.6033,-2.6151,-2.6214,-2.6299,-2.6432,-2.6466,-2.6597,-2.6645,-2.672,-2.6815,-2.6821,-2.6911,-2.6955,-2.7052,-2.7082,-2.722,-2.7246,-2.727,-2.7278,-2.7271,-2.7268,-2.731,-2.7301,-2.7287,-2.7286,-2.7285,-2.7284,0,-2.5851,-2.6023,-2.6161,-2.6208,-2.6321,-2.6385,-2.6435,-2.6519,-2.6585,-2.6677,-2.6721,-2.6827,-2.6885,-2.6967,-2.7006,-2.6954,-2.7174,-2.7112,-2.72,-2.7199,-2.7247,-2.7244,-2.7477,-2.7282,-2.7281,-2.7281,-2.728,0,-2.5738,-2.583,-2.6023,-2.6117,-2.6161,-2.6252,-2.6358,-2.6446,-2.6534,-2.6559,-2.6632,-2.6642,-2.6764,-2.6699,-2.6869,-2.6791,-2.6849,-2.6883,-2.689,-2.6906,-2.6831,-2.6959,-2.7175,-2.72,-2.6918,-2.6915,-2.6912,0,-2.5518,-2.5725,-2.5755,-2.5937,-2.6039,-2.6039,-2.6141,-2.6218,-2.626,-2.6353,-2.6399,-2.6505,-2.6465,-2.6505,-2.6583,-2.6636,-2.6737,-2.6623,-2.676,-2.6764,-2.6738,-2.6936,-2.6958,-2.7122,-2.6874,-2.6878,-2.6881,0,-2.5354,-2.5488,-2.5519,-2.5574,-2.568,-2.5765,-2.5882,-2.5994,-2.6055,-2.614,-2.624,-2.6389,-2.6367,-2.6432,-2.6451,-2.653,-2.6669,-2.6494,-2.6497,-2.6526,-2.6858,-2.6878,-2.6905,-2.6665,-2.6669,-2.6673,-2.6851,0,-2.5175,-2.5284,-2.5367,-2.5487,-2.556,-2.5676,-2.5724,-2.5794,-2.5804,-2.5845,-2.5992,-2.6067,-2.6182,-2.6224,-2.6235,-2.6401,-2.6381,-2.6355,-2.6295,-2.6425,-2.6485,-2.6509,-2.6202,-2.6201,-2.62,-2.6199,0,0,-2.4955,-2.5111,-2.514,-2.5253,-2.5317,-2.5314,-2.5434,-2.5496,-2.562,-2.5664,-2.5631,-2.5852,-2.5915,-2.6089,-2.6133,-2.6179,-2.6213,-2.6166,-2.6362,-2.638,-2.6397,-2.646,-2.6485,-2.6196,-2.6196,-2.6195,-2.6195,0,-2.4899,-2.4961,-2.5079,-2.5143,-2.5239,-2.5277,-2.5305,-2.54,-2.5432,-2.5575,-2.5572,-2.5666,-2.5841,-2.5909,-2.5967,-2.6146,-2.6139,-2.6177,-2.6258,-2.6348,-2.6368,-2.6385,-2.6451,-2.6474,-2.6192,-2.6192,-2.6192,0,-2.4747,-2.4816,-2.4878,-2.502,-2.5083,-2.5187,-2.5136,-2.5248,-2.5327,-2.5319,-2.5461,-2.551,-2.5603,-2.576,-2.5833,-2.5805,-2.6069,-2.5993,-2.6002,-2.6012,-2.6102,-2.6125,-2.6146,-2.587,-2.5868,-2.5867,0,0,-2.4693,-2.4793,-2.4879,-2.5011,-2.5051,-2.5108,-2.5168,-2.5185,-2.5268,-2.5302,-2.5364,-2.5446,-2.5548,-2.5615,-2.5714,-2.5879,-2.5902,-2.5951,-2.5967,-2.5979,-2.5995,-2.6088,-2.6111,-2.5862,-2.5862,-2.5862,0,0,-2.4667,-2.4772,-2.4767,-2.4926,-2.5005,-2.5099,-2.5178,-2.5175,-2.5269,-2.5261,-2.5295,-2.5318,-2.5465,-2.5513,-2.5441,-2.5694,-2.5634,-2.5653,-2.5658,-2.5678,-2.5693,-2.5679,-2.54,0,0,0,0,0,-2.4635,-2.4758,-2.4753,-2.4787,-2.4966,-2.5101,-2.5125,-2.5155,-2.5112,-2.5175,-2.5226,-2.5214,-2.5481,-2.5418,-2.5452,-2.5532,-2.5798,-2.5809,-2.582,-2.5866,-2.5886,-2.5903,0,0,0,0,0,0,-2.4648,-2.4689,-2.475,-2.4848,-2.4889,-2.5097,-2.5032,-2.5043,-2.5106,-2.5102,-2.5205,-2.5217,-2.5246,-2.5403,-2.5433,-2.5509,-2.539,-2.5802,-2.5812,-2.5821,-2.5873,-2.5889,-2.5904,0,0,0,0,0,-2.4659,-2.4692,-2.4972,-2.4847,-2.4882,-2.4952,-2.5027,-2.5037,-2.5086,-2.5166,-2.5178,-2.5103,-2.5248,-2.5275,-2.5421,-2.5495,-2.537,-2.5381,-2.5809,-2.5816,-2.5823,-2.5881,0,0,0,0,0,0,-2.4667,-2.4702,-2.498,-2.4991,-2.4802,-2.4941,-2.4964,-2.503,-2.5146,-2.516,-2.5065,-2.506,-2.525,-2.5271,-2.5292,-2.5488,-2.5353,-2.5365,-2.5371,-2.5815,-2.5821,-2.5826,0,0,0,0,0,0,-2.4685,-2.4712,-2.4986,-2.4927,-2.4933,-2.4931,-2.4951,-2.5079,-2.5148,-2.5039,-2.5039,-2.5062,-2.5219,-2.5269,-2.5285,-2.5484,-2.5341,-2.5351,-2.5359,-2.5363,-2.5819,-2.5824,0,0,0,0,0,0,-2.4697,-2.4721,-2.4924,-2.4929,-2.4933,-2.507,-2.5045,-2.5227,-2.5096,-2.5034,-2.5086,-2.5081,-2.5217,-2.5234,-2.528,-2.5472,-2.5481,-2.5341,-2.5348,-2.5353,-2.5357,0,0,0,0,0,0,0,-2.4707,-2.454,-2.4909,-2.493,-2.4934,-2.5102,-2.5105,-2.5108,-2.5095,-2.5091,-2.5087,-2.5083,-2.528,-2.5292,-2.5303,-2.5463,0,0,-2.534,-2.5345,0,0,0,0,0,0,0,0,-2.4531,-2.4538,-2.4909,-2.4911,-2.4914,-2.5102,-2.5105,-2.5108,-2.5095,-2.5091,-2.5088,-2.5084,-2.5283,-2.5292,-2.5302,0,0,0,0,0,0,0,0,0,0,0,0,0,0,0,-2.4909,-2.4911,0,-2.5103,-2.5105,-2.5107,-2.5094,-2.5091,-2.5088,-2.5086,-2.5286,-2.5293,-2.5301,0,0,0,0,0,0,0,0,0,0,0,0,0,0,0,0,0,0,0,0,0,0,0,0,0,0,0,0,0,0,0,0,0,0,0,0,0,0,0,0,0,0,0,0,0,0,0,0,0,0,0,0,0,0,0,0,0,0,0,0,0,0,0,0,0,0,0,0,0]}],[{"header":{"parameterUnit":"kt","parameterCategory":2,"dx":1,"dy":1,"la1":30.253999710083008,"la2":30.299108505249023,"lo1":-89.0895004272461,"lo2":-89.04439544677734,"nx":28,"ny":28,"refTime":"2022-10-04T21:00:00:Z","depth":0,"parameterNumber":2,"parameterNumberName":"V-component_of_WINDS"},"data":[-2.9446,-2.9478,-2.9506,-2.9556,-2.959,-2.9629,-2.9652,-2.9686,-2.9719,-2.9771,-2.9806,-2.9839,-2.9885,-2.9934,-2.9975,-2.9989,-3.0003,-2.9995,-3.0013,-3.0025,-3.0028,-3.0032,-3.0025,-2.9998,-2.9998,-2.9996,-2.9996,-2.9995,-2.9454,-2.9487,-2.9522,-2.9574,-2.9604,-2.9629,-2.9674,-2.9697,-2.9732,-2.9774,-2.981,-2.9858,-2.99,-2.995,-2.9996,-3.0013,-3.0028,-3.0024,-3.0023,-3.003,-3.0044,-3.0037,-3.0011,-3.0011,-3.0011,-3.0011,-3.0011,-3.0011,-2.9476,-2.9494,-2.9542,-2.958,-2.9614,-2.9649,-2.9672,-2.971,-2.9745,-2.9795,-2.9822,-2.9863,-2.9911,-2.998,-3.001,-3.0044,-3.0054,-3.0058,-3.0059,-3.0059,-3.0056,-3.0055,-3.0053,-3.0053,-3.0053,-3.0054,-3.0054,0,-2.9501,-2.9523,-2.9557,-2.96,-2.963,-2.9666,-2.9704,-2.9719,-2.9776,-2.9803,-2.9844,-2.9872,-2.9929,-2.9972,-3.0021,-3.0052,-3.0081,-3.0088,-3.0091,-3.0077,-3.0059,-3.0069,-3.0091,-3.0087,-3.0088,-3.0088,-3.0088,-3.0088,-2.9525,-2.9542,-2.9606,-2.9626,-2.9654,-2.9687,-2.9712,-2.9761,-2.9786,-2.9841,-2.9856,-2.9899,-2.9935,-2.9997,-3.0043,-3.0086,-3.0101,-3.0096,-3.0108,-3.0095,-3.0101,-3.0099,-3.0101,-3.0093,-3.0092,-3.0092,-3.0091,0,-2.9535,-2.958,-2.9617,-2.9678,-2.9694,-2.9711,-2.9764,-2.9784,-2.982,-2.9853,-2.9864,-2.992,-2.996,-3.0007,-3.0062,-3.0086,-3.0116,-3.0129,-3.01,-3.0105,-3.0105,-3.0104,-3.0099,-3.0102,-3.0131,-3.0131,-3.013,0,-2.9573,-2.9595,-2.9661,-2.9679,-2.9706,-2.9754,-2.9779,-2.9811,-2.9853,-2.988,-2.992,-2.9945,-3.0001,-3.0033,-3.0068,-3.0101,-3.0111,-3.0131,-3.014,-3.0127,-3.0124,-3.0141,-3.0142,-3.0159,-3.0159,-3.0159,-3.0159,0,-2.9584,-2.9645,-2.9676,-2.9697,-2.9764,-2.9778,-2.9807,-2.9853,-2.9878,-2.9918,-2.9935,-2.9978,-3.0001,-3.0035,-3.0078,-3.0084,-3.012,-3.0137,-3.014,-3.0139,-3.0145,-3.0144,-3.0128,-3.0159,-3.0159,-3.0159,-3.0159,0,-2.9621,-2.9659,-2.9697,-2.9754,-2.9768,-2.9789,-2.9834,-2.9862,-2.9909,-2.9931,-2.9963,-2.9995,-3.0028,-3.0041,-3.0087,-3.0082,-3.0104,-3.0126,-3.0127,-3.0132,-3.0146,-3.013,-3.0111,-3.011,-3.0138,-3.0138,-3.0138,0,-2.9621,-2.9672,-2.9713,-2.9748,-2.9778,-2.9821,-2.9845,-2.9884,-2.9917,-2.9948,-2.9984,-3.0019,-3.0038,-3.0056,-3.0073,-3.0111,-3.0118,-3.0112,-3.0157,-3.0158,-3.0142,-3.0126,-3.011,-3.011,-3.0136,-3.0136,-3.0136,0,-2.9626,-2.9707,-2.971,-2.9736,-2.9795,-2.982,-2.9848,-2.9893,-2.9911,-2.9951,-2.9976,-3.0026,-3.0043,-3.0071,-3.0102,-3.0116,-3.0115,-3.0133,-3.0135,-3.0128,-3.0139,-3.0125,-3.0125,-3.0133,-3.0133,-3.0133,-3.0135,0,-2.9671,-2.9702,-2.9713,-2.9769,-2.9796,-2.982,-2.9869,-2.9891,-2.9917,-2.9951,-2.9988,-3.0033,-3.0078,-3.009,-3.0116,-3.0135,-3.0139,-3.0157,-3.0173,-3.0161,-3.0163,-3.0164,-3.0166,-3.0167,-3.0168,-3.0168,0,0,-2.9659,-2.9705,-2.9749,-2.9777,-2.9802,-2.9845,-2.9868,-2.9898,-2.9956,-2.9973,-2.9983,-3.0059,-3.0095,-3.0135,-3.0135,-3.0154,-3.0162,-3.0164,-3.0167,-3.0166,-3.0166,-3.0167,-3.0167,-3.0169,-3.017,-3.017,-3.017,0,-2.9685,-2.972,-2.9741,-2.9774,-2.9823,-2.9857,-2.9862,-2.9919,-2.9942,-2.9978,-3.0014,-3.0042,-3.0102,-3.0135,-3.0159,-3.016,-3.0185,-3.0171,-3.0154,-3.0171,-3.017,-3.0169,-3.017,-3.0169,-3.0172,-3.0171,-3.0171,0,-2.9699,-2.9741,-2.9756,-2.9815,-2.9848,-2.9877,-2.9906,-2.9936,-2.9959,-3.0005,-3.004,-3.0072,-3.012,-3.0152,-3.0168,-3.0177,-3.0204,-3.0204,-3.0201,-3.0204,-3.0223,-3.0221,-3.022,-3.0238,-3.0238,-3.0238,0,0,-2.9715,-2.9744,-2.9803,-2.9824,-2.9842,-2.9893,-2.9913,-2.9942,-2.9984,-3.0,-3.004,-3.0081,-3.0116,-3.0138,-3.0174,-3.0202,-3.0216,-3.021,-3.0207,-3.0204,-3.0205,-3.0223,-3.0222,-3.0238,-3.0238,-3.0238,0,0,-2.9722,-2.9792,-2.9811,-2.9841,-2.9879,-2.9939,-2.995,-2.9975,-3.0012,-3.0014,-3.0064,-3.0077,-3.0108,-3.0137,-3.0133,-3.018,-3.0195,-3.0197,-3.016,-3.0157,-3.0154,-3.0146,-3.0168,0,0,0,0,0,-2.9773,-2.9783,-2.98,-2.9812,-2.9887,-2.993,-2.994,-2.9981,-2.9991,-2.9999,-3.0036,-3.0062,-3.0145,-3.0142,-3.0154,-3.0158,-3.024,-3.0239,-3.0239,-3.0198,-3.0194,-3.0191,0,0,0,0,0,0,-2.9778,-2.9793,-2.98,-2.9859,-2.9877,-2.993,-2.9956,-2.9967,-2.9991,-2.9995,-3.0054,-3.0064,-3.01,-3.0139,-3.0149,-3.0152,-3.0165,-3.024,-3.0239,-3.0239,-3.0197,-3.0193,-3.0191,0,0,0,0,0,-2.9782,-2.9794,-2.9903,-2.986,-2.9875,-2.9932,-2.9956,-2.9965,-2.9985,-3.0043,-3.0054,-3.0013,-3.0099,-3.011,-3.0145,-3.0146,-3.0158,-3.0162,-3.0239,-3.0239,-3.0239,-3.0195,0,0,0,0,0,0,-2.9786,-2.9804,-2.9907,-2.9913,-2.9859,-2.9929,-2.9942,-2.9964,-3.0032,-3.0042,-3.0005,-3.0007,-3.0098,-3.0107,-3.0115,-3.0142,-3.0153,-3.0157,-3.0159,-3.0239,-3.0239,-3.0239,0,0,0,0,0,0,-2.9798,-2.9809,-2.991,-2.9906,-2.9913,-2.9927,-2.9938,-2.9974,-3.0032,-2.999,-2.9994,-3.0005,-3.0086,-3.0105,-3.0112,-3.0166,-3.0149,-3.0152,-3.0155,-3.0156,-3.0239,-3.0239,0,0,0,0,0,0,-2.9803,-2.9813,-2.9905,-2.991,-2.9915,-2.9987,-2.996,-3.0034,-3.0028,-2.9986,-3.0029,-3.0029,-3.0083,-3.0091,-3.0109,-3.016,-3.0165,-3.0149,-3.0151,-3.0153,-3.0154,0,0,0,0,0,0,0,-2.9807,-2.9735,-2.9871,-2.9913,-2.9917,-2.997,-2.9971,-2.9973,-3.0028,-3.0028,-3.0029,-3.0029,-3.0129,-3.0133,-3.0137,-3.0155,0,0,-3.0149,-3.015,0,0,0,0,0,0,0,0,-2.9732,-2.9734,-2.9871,-2.9872,-2.9873,-2.997,-2.9971,-2.9973,-3.0028,-3.0028,-3.0028,-3.0029,-3.013,-3.0133,-3.0137,0,0,0,0,0,0,0,0,0,0,0,0,0,0,0,-2.9871,-2.9872,0,-2.997,-2.9971,-2.9972,-3.0028,-3.0028,-3.0028,-3.0029,-3.0131,-3.0134,-3.0136,0,0,0,0,0,0,0,0,0,0,0,0,0,0,0,0,0,0,0,0,0,0,0,0,0,0,0,0,0,0,0,0,0,0,0,0,0,0,0,0,0,0,0,0,0,0,0,0,0,0,0,0,0,0,0,0,0,0,0,0,0,0,0,0,0,0,0,0,0]}]]]